Date String (YYYY-MM-DD hh:mm:ss) UTC,Instrument flags,Ambient pressure (hPa),Sample flow (lpm),Bypass flow (lpm),Sample temperature (°C),Ambient temperature (°C),ASC tube jacket temperature (°C),LED temperature (°C),Box temperature (°C),Sample RH (%),Span deviation,Mass concentration (μg/m³),Mass concentration (μg/m³),Mass concentration (μg/m³)
DateTimeUTC,F1_M11,P_M11,Q1_M11,Q2_M11,T1_M11,T2_M11,T3_M11,T4_M11,T5_M11,U1_M11,ZSPAN_M11,X0_M11,X2_M11,X1_M11
2022-02-23 12:00:00,,0828.4,5.01,0.00,21.9,20.8,00.0,31.0,23.3,03.3,0000.0,0005.24,0003.42,0003.03
2022-02-23 12:01:00,,0828.5,4.99,0.00,22.0,21.7,00.0,31.1,23.6,03.3,0000.0,0005.16,0003.40,0003.03
2022-02-23 12:02:00,,0828.4,5.00,0.00,22.1,22.6,00.0,31.1,23.9,03.2,0000.0,0005.41,0003.41,0003.04
2022-02-23 12:03:00,,0828.4,5.00,0.00,22.2,22.9,00.0,31.1,24.1,03.2,0000.0,0006.46,0003.45,0003.08
2022-02-23 12:04:00,,0828.3,4.99,0.00,22.2,22.3,00.0,31.1,24.0,03.2,0000.0,0007.25,0003.50,0003.10
2022-02-23 12:05:00,,0828.3,5.00,0.00,22.2,21.8,00.0,31.1,23.8,03.2,0000.0,0007.22,0003.50,0003.12
2022-02-23 12:06:00,,0828.4,4.99,0.00,22.1,21.3,00.0,31.1,23.7,03.2,0000.0,0007.28,0003.51,0003.12
2022-02-23 12:07:00,,0828.4,5.00,0.00,22.0,20.8,00.0,31.1,23.5,03.3,0000.0,0007.24,0003.49,0003.12
2022-02-23 12:08:00,,0828.5,5.01,0.00,21.9,20.6,00.0,31.0,23.4,03.3,0000.0,0007.12,0003.48,0003.12
2022-02-23 12:09:00,,0828.7,5.00,0.00,21.9,20.8,00.0,31.0,23.4,03.3,0000.0,0007.02,0003.47,0003.11
2022-02-23 12:10:00,,0829.0,4.98,0.00,22.0,21.7,00.0,31.0,23.6,03.3,0000.0,0006.98,0003.47,0003.11
2022-02-23 12:11:00,,0828.9,5.00,0.00,22.1,22.5,00.0,31.1,23.8,03.3,0000.0,0006.95,0003.47,0003.11
2022-02-23 12:12:00,,0828.5,5.01,0.00,22.2,22.9,00.0,31.1,24.1,03.2,0000.0,0007.52,0003.52,0003.12
2022-02-23 12:13:00,,0828.4,5.00,0.00,22.2,22.6,00.0,31.1,24.1,03.2,0000.0,0007.53,0003.53,0003.13
2022-02-23 12:14:00,,0828.4,4.99,0.00,22.2,22.0,00.0,31.1,23.9,03.2,0000.0,0006.90,0003.53,0003.14
2022-02-23 12:15:00,,0828.4,5.01,0.00,22.1,21.5,00.0,31.1,23.8,03.2,0000.0,0006.61,0003.52,0003.15
2022-02-23 12:16:00,,0828.4,5.01,0.00,22.1,21.2,00.0,31.0,23.6,03.2,0000.0,0006.84,0003.53,0003.16
2022-02-23 12:17:00,,0828.4,5.00,0.00,22.0,20.9,00.0,31.0,23.5,03.2,0000.0,0006.90,0003.57,0003.18
2022-02-23 12:18:00,,0828.4,5.00,0.00,22.0,21.1,00.0,31.0,23.5,03.2,0000.0,0006.93,0003.61,0003.21
2022-02-23 12:19:00,,0828.4,5.00,0.00,22.0,21.9,00.0,31.0,23.7,03.2,0000.0,0006.89,0003.63,0003.23
2022-02-23 12:20:00,,0828.4,5.02,0.00,22.2,22.7,00.0,31.1,23.9,03.2,0000.0,0007.46,0003.66,0003.24
2022-02-23 12:21:00,,0828.4,5.00,0.00,22.3,23.1,00.0,31.1,24.2,03.2,0000.0,0007.90,0003.68,0003.26
2022-02-23 12:22:00,,0828.3,4.99,0.00,22.3,22.8,00.0,31.1,24.2,03.2,0000.0,0007.91,0003.70,0003.28
2022-02-23 12:23:00,,0828.3,4.99,0.00,22.3,22.3,00.0,31.1,24.1,03.2,0000.0,0007.63,0003.69,0003.31
2022-02-23 12:24:00,,0828.2,5.01,0.00,22.2,21.9,00.0,31.1,23.9,03.2,0000.0,0007.54,0003.71,0003.33
2022-02-23 12:25:00,,0828.2,5.01,0.00,22.2,21.5,00.0,31.1,23.8,03.2,0000.0,0007.48,0003.70,0003.33
2022-02-23 12:26:00,,0828.1,5.00,0.00,22.1,21.1,00.0,31.1,23.7,03.2,0000.0,0007.09,0003.70,0003.34
2022-02-23 12:27:00,,0828.1,4.99,0.00,22.0,20.9,00.0,31.1,23.6,03.2,0000.0,0006.91,0003.71,0003.35
2022-02-23 12:28:00,,0828.1,5.00,0.00,22.0,21.4,00.0,31.1,23.6,03.2,0000.0,0006.91,0003.71,0003.35
2022-02-23 12:29:00,,0828.1,4.99,0.00,22.1,22.2,00.0,31.1,23.8,03.2,0000.0,0007.01,0003.72,0003.35
2022-02-23 12:30:00,,0828.1,5.01,0.00,22.2,22.9,00.0,31.1,24.1,03.2,0000.0,0007.17,0003.74,0003.35
2022-02-23 12:31:00,,0828.1,5.01,0.00,22.4,23.0,00.0,31.2,24.2,03.2,0000.0,0006.35,0003.73,0003.36
2022-02-23 12:32:00,,0828.2,4.99,0.00,22.3,22.5,00.0,31.2,24.1,03.2,0000.0,0005.90,0003.75,0003.37
2022-02-23 12:33:00,,0828.1,5.00,0.00,22.3,22.1,00.0,31.2,24.0,03.2,0000.0,0005.96,0003.74,0003.38
2022-02-23 12:34:00,,0828.1,5.01,0.00,22.2,21.7,00.0,31.2,23.8,03.2,0000.0,0005.68,0003.71,0003.38
2022-02-23 12:35:00,,0828.1,4.99,0.00,22.1,21.2,00.0,31.1,23.7,03.2,0000.0,0005.58,0003.70,0003.36
2022-02-23 12:36:00,,0828.4,4.99,0.00,22.0,21.0,00.0,31.1,23.5,03.2,0000.0,0005.80,0003.74,0003.37
2022-02-23 12:37:00,,0828.2,5.01,0.00,22.1,21.8,00.0,31.1,23.7,03.2,0000.0,0005.89,0003.76,0003.37
2022-02-23 12:38:00,,0828.1,5.00,0.00,22.2,22.5,00.0,31.1,23.9,03.2,0000.0,0005.88,0003.76,0003.38
2022-02-23 12:39:00,,0828.1,5.01,0.00,22.3,23.0,00.0,31.2,24.1,03.2,0000.0,0005.87,0003.75,0003.37
2022-02-23 12:40:00,,0828.1,5.00,0.00,22.4,22.8,00.0,31.2,24.2,03.2,0000.0,0005.77,0003.74,0003.37
2022-02-23 12:41:00,,0828.1,4.99,0.00,22.3,22.3,00.0,31.2,24.0,03.2,0000.0,0005.58,0003.70,0003.36
2022-02-23 12:42:00,,0828.1,5.01,0.00,22.2,21.7,00.0,31.2,23.8,03.2,0000.0,0005.91,0003.69,0003.36
2022-02-23 12:43:00,,0828.1,5.00,0.00,22.1,21.2,00.0,31.1,23.7,03.2,0000.0,0006.12,0003.67,0003.35
2022-02-23 12:44:00,,0828.2,5.00,0.00,22.1,21.1,00.0,31.1,23.6,03.2,0000.0,0006.00,0003.67,0003.35
2022-02-23 12:45:00,,0828.1,4.99,0.00,22.1,21.8,00.0,31.1,23.7,03.2,0000.0,0006.45,0003.71,0003.35
2022-02-23 12:46:00,,0828.2,5.00,0.00,22.2,22.6,00.0,31.2,24.0,03.2,0000.0,0006.67,0003.75,0003.37
2022-02-23 12:47:00,,0828.0,5.01,0.00,22.4,23.1,00.0,31.2,24.2,03.1,0000.0,0006.64,0003.73,0003.37
2022-02-23 12:48:00,,0828.0,5.01,0.00,22.4,22.7,00.0,31.2,24.2,03.1,0000.0,0007.75,0003.74,0003.37
2022-02-23 12:49:00,,0827.8,5.00,0.00,22.3,22.1,00.0,31.2,24.0,03.1,0000.0,0007.96,0003.75,0003.37
2022-02-23 12:50:00,,0827.8,5.00,0.00,22.3,21.6,00.0,31.2,23.8,03.1,0000.0,0008.14,0003.79,0003.38
2022-02-23 12:51:00,,0827.9,5.00,0.00,22.1,21.1,00.0,31.2,23.6,03.2,0000.0,0008.32,0003.82,0003.38
2022-02-23 12:52:00,,0828.0,4.98,0.00,22.0,20.7,00.0,31.1,23.5,03.2,0000.0,0008.41,0003.82,0003.38
2022-02-23 12:53:00,,0828.1,5.00,0.00,22.0,21.1,00.0,31.1,23.5,03.2,0000.0,0008.49,0003.85,0003.37
2022-02-23 12:54:00,,0828.1,5.01,0.00,22.1,22.0,00.0,31.2,23.8,03.2,0000.0,0008.37,0003.86,0003.37
2022-02-23 12:55:00,,0828.1,5.00,0.00,22.2,22.8,00.0,31.2,24.0,03.1,0000.0,0008.39,0003.86,0003.36
2022-02-23 12:56:00,,0828.1,4.99,0.00,22.4,23.3,00.0,31.2,24.3,03.1,0000.0,0008.30,0003.82,0003.34
2022-02-23 12:57:00,,0828.0,5.00,0.00,22.4,23.0,00.0,31.2,24.3,03.1,0000.0,0008.57,0003.79,0003.32
2022-02-23 12:58:00,,0827.9,4.99,0.00,22.4,22.5,00.0,31.2,24.1,03.1,0000.0,0008.53,0003.76,0003.32
2022-02-23 12:59:00,,0827.8,5.01,0.00,22.3,21.8,00.0,31.2,23.9,03.1,0000.0,0007.85,0003.76,0003.31
